| time (UTC) | temp F | wind direction | speed MPH | gust MPH | rain 1hr in | rain 24hr in | rain mn in | humidity % | barometer mb |
| 20260510081531 | 39 | 199 | 0.0 | 0.0 | 0.00 | 0.08 | 0.00 | 80 | 1018.2 |
| 20260510080028 | 39 | 164 | 0.0 | 0.0 | 0.00 | 0.08 | 0.00 | 80 | 1018.1 |
| 20260510074534 | 40 | 219 | 0.0 | 0.0 | 0.00 | 0.08 | 0.00 | 80 | 1018.1 |
| 20260510073023 | 40 | 219 | 0.0 | 0.0 | 0.00 | 0.08 | 0.00 | 79 | 1018.2 |
| 20260510071527 | 41 | 217 | 0.0 | 1.0 | 0.00 | 0.08 | 0.00 | 78 | 1018.1 |
| 20260510070020 | 41 | 209 | 0.0 | 0.0 | 0.00 | 0.08 | 0.00 | 78 | 1018.1 |
| 20260510064520 | 41 | 195 | 0.0 | 0.0 | 0.00 | 0.08 | 0.00 | 78 | 1018.0 |
| 20260510063017 | 42 | 197 | 0.0 | 0.0 | 0.00 | 0.08 | 0.00 | 78 | 1017.9 |
| 20260510061516 | 42 | 208 | 0.0 | 0.0 | 0.00 | 0.08 | 0.00 | 78 | 1017.7 |
| 20260510060011 | 42 | 206 | 0.0 | 0.0 | 0.00 | 0.08 | 0.00 | 77 | 1017.5 |
| 20260510054510 | 42 | 200 | 0.0 | 0.0 | 0.00 | 0.08 | 0.08 | 76 | 1017.4 |
| 20260510053008 | 43 | 197 | 0.0 | 0.0 | 0.00 | 0.08 | 0.08 | 77 | 1017.2 |
| 20260510051508 | 43 | 188 | 0.0 | 0.0 | 0.00 | 0.08 | 0.08 | 76 | 1017.4 |
| 20260510050006 | 44 | 279 | 0.0 | 0.0 | 0.00 | 0.08 | 0.08 | 75 | 1017.4 |
| 20260510044507 | 45 | 279 | 0.0 | 0.0 | 0.00 | 0.08 | 0.08 | 74 | 1017.3 |
| 20260510043003 | 45 | 333 | 0.0 | 0.0 | 0.00 | 0.08 | 0.08 | 74 | 1017.1 |
| 20260510041600 | 47 | 196 | 0.0 | 0.0 | 0.00 | 0.08 | 0.08 | 69 | 1016.7 |
| 20260510040057 | 48 | 200 | 0.0 | 0.0 | 0.00 | 0.08 | 0.08 | 66 | 1016.5 |
| 20260510034555 | 50 | 209 | 0.0 | 0.0 | 0.00 | 0.08 | 0.08 | 64 | 1016.3 |
| 20260510033120 | 51 | 169 | 0.0 | 0.0 | 0.00 | 0.08 | 0.08 | 63 | 1016.1 |
| 20260510031606 | 51 | 55 | 0.0 | 0.0 | 0.00 | 0.08 | 0.08 | 63 | 1015.9 |
| 20260510030050 | 51 | 55 | 0.0 | 0.0 | 0.00 | 0.08 | 0.08 | 59 | 1015.6 |
| 20260510024548 | 52 | 55 | 0.0 | 0.0 | 0.00 | 0.08 | 0.08 | 60 | 1015.3 |
| 20260510023044 | 52 | 55 | 0.0 | 0.0 | 0.00 | 0.08 | 0.08 | 55 | 1015.0 |
| 20260510021544 | 53 | 55 | 0.0 | 0.0 | 0.00 | 0.08 | 0.08 | 54 | 1014.7 |
| 20260510020043 | 54 | 41 | 0.0 | 0.0 | 0.00 | 0.08 | 0.08 | 50 | 1014.3 |
| 20260510014540 | 56 | 11 | 0.0 | 1.0 | 0.00 | 0.08 | 0.08 | 47 | 1014.2 |
| 20260510013041 | 55 | 43 | 0.0 | 0.0 | 0.00 | 0.08 | 0.08 | 48 | 1014.1 |
| 20260510011537 | 55 | 54 | 0.0 | 1.0 | 0.00 | 0.08 | 0.08 | 51 | 1013.8 |
| 20260510010035 | 55 | 52 | 0.0 | 1.0 | 0.00 | 0.08 | 0.08 | 50 | 1013.6 |
| 20260510004534 | 55 | 59 | 0.0 | 2.0 | 0.00 | 0.08 | 0.08 | 51 | 1013.6 |
| 20260510003044 | 55 | 61 | 0.0 | 3.0 | 0.00 | 0.08 | 0.08 | 49 | 1013.4 |
| 20260510001539 | 56 | 36 | 0.0 | 5.0 | 0.00 | 0.08 | 0.08 | 46 | 1013.2 |
| 20260510000030 | 56 | 11 | 0.0 | 3.0 | 0.00 | 0.08 | 0.08 | 47 | 1012.9 |
| 20260509234534 | 57 | 84 | 0.0 | 6.0 | 0.00 | 0.08 | 0.08 | 43 | 1012.6 |
| 20260509233026 | 57 | 98 | 0.0 | 2.0 | 0.00 | 0.08 | 0.08 | 44 | 1012.4 |
| 20260509231528 | 58 | 46 | 1.0 | 8.0 | 0.00 | 0.08 | 0.08 | 41 | 1012.2 |
| 20260509230027 | 59 | 101 | 0.0 | 5.0 | 0.00 | 0.08 | 0.08 | 38 | 1012.0 |
| 20260509224524 | 60 | 50 | 0.0 | 5.0 | 0.00 | 0.08 | 0.08 | 37 | 1011.8 |
| 20260509223024 | 59 | 30 | 0.0 | 5.0 | 0.00 | 0.08 | 0.08 | 38 | 1011.8 |
| 20260509221526 | 60 | 64 | 0.0 | 3.0 | 0.00 | 0.08 | 0.08 | 36 | 1011.6 |
| 20260509220024 | 59 | 47 | 0.0 | 4.0 | 0.00 | 0.08 | 0.08 | 37 | 1011.5 |
| 20260509214533 | 59 | 46 | 0.0 | 6.0 | 0.00 | 0.08 | 0.08 | 39 | 1011.5 |
| 20260509213017 | 58 | 42 | 0.0 | 1.0 | 0.00 | 0.08 | 0.08 | 41 | 1011.6 |
| 20260509211512 | 56 | 323 | 0.0 | 1.0 | 0.00 | 0.08 | 0.08 | 49 | 1011.6 |
| 20260509210012 | 56 | 312 | 0.0 | 0.0 | 0.00 | 0.08 | 0.08 | 45 | 1011.7 |
| 20260509204513 | 55 | 346 | 0.0 | 0.0 | 0.00 | 0.08 | 0.08 | 50 | 1011.7 |
| 20260509203005 | 53 | 42 | 0.0 | 0.0 | 0.00 | 0.08 | 0.08 | 51 | 1011.7 |
| 20260509201600 | 51 | 312 | 0.0 | 2.0 | 0.00 | 0.08 | 0.08 | 57 | 1011.8 |
| 20260509200058 | 49 | 291 | 0.0 | 1.0 | 0.00 | 0.08 | 0.08 | 67 | 1012.0 |
| 20260509194558 | 50 | 296 | 0.0 | 2.0 | 0.02 | 0.08 | 0.08 | 63 | 1012.2 |
| 20260509193058 | 48 | 219 | 0.0 | 1.0 | 0.03 | 0.08 | 0.08 | 71 | 1012.3 |
| 20260509191603 | 45 | 38 | 0.0 | 0.0 | 0.04 | 0.08 | 0.08 | 80 | 1012.4 |
| 20260509190058 | 44 | 38 | 0.0 | 0.0 | 0.04 | 0.08 | 0.08 | 76 | 1012.0 |
| 20260509184552 | 45 | 355 | 0.0 | 4.0 | 0.02 | 0.06 | 0.06 | 73 | 1012.5 |
| 20260509183050 | 47 | 242 | 0.0 | 2.0 | 0.01 | 0.05 | 0.05 | 66 | 1012.3 |
| 20260509181555 | 47 | 348 | 0.0 | 4.0 | 0.00 | 0.04 | 0.04 | 68 | 1012.2 |
| 20260509180046 | 48 | 350 | 0.0 | 2.0 | 0.00 | 0.04 | 0.04 | 63 | 1011.8 |
| 20260509174554 | 49 | 30 | 0.0 | 6.0 | 0.00 | 0.04 | 0.04 | 61 | 1011.6 |
| 20260509173049 | 50 | 32 | 0.0 | 2.0 | 0.00 | 0.04 | 0.04 | 58 | 1011.1 |
| 20260509171549 | 51 | 24 | 0.0 | 0.0 | 0.00 | 0.04 | 0.04 | 58 | 1011.0 |
| 20260509170044 | 52 | 59 | 0.0 | 5.0 | 0.00 | 0.04 | 0.04 | 59 | 1010.9 |
| 20260509164542 | 50 | 11 | 0.0 | 1.0 | 0.00 | 0.04 | 0.04 | 62 | 1010.9 |
| 20260509163036 | 50 | 25 | 0.0 | 1.0 | 0.00 | 0.04 | 0.04 | 59 | 1010.6 |
| 20260509161535 | 50 | 5 | 0.0 | 2.0 | 0.00 | 0.04 | 0.04 | 61 | 1010.5 |
| 20260509160032 | 50 | 48 | 0.0 | 1.0 | 0.00 | 0.04 | 0.04 | 65 | 1010.5 |
| 20260509154535 | 49 | 11 | 0.0 | 2.0 | 0.00 | 0.04 | 0.04 | 66 | 1010.4 |
| 20260509153033 | 49 | 343 | 0.0 | 2.0 | 0.00 | 0.04 | 0.04 | 67 | 1010.5 |
| 20260509151527 | 48 | 15 | 0.0 | 2.0 | 0.00 | 0.04 | 0.04 | 70 | 1010.4 |
| 20260509150025 | 48 | 355 | 0.0 | 3.0 | 0.00 | 0.04 | 0.04 | 69 | 1010.4 |
| 20260509144524 | 48 | 5 | 0.0 | 1.0 | 0.00 | 0.04 | 0.04 | 69 | 1010.2 |
| 20260509143022 | 47 | 9 | 0.0 | 0.0 | 0.00 | 0.04 | 0.04 | 75 | 1010.2 |
| 20260509141520 | 46 | 5 | 0.0 | 0.0 | 0.00 | 0.04 | 0.04 | 74 | 1010.3 |
| 20260509140016 | 46 | 41 | 0.0 | 0.0 | 0.00 | 0.04 | 0.04 | 80 | 1010.2 |
| 20260509134512 | 45 | 11 | 0.0 | 0.0 | 0.00 | 0.04 | 0.04 | 85 | 1010.2 |
| 20260509133009 | 45 | 268 | 0.0 | 0.0 | 0.00 | 0.04 | 0.04 | 87 | 1010.1 |
| 20260509131510 | 45 | 261 | 0.0 | 0.0 | 0.00 | 0.04 | 0.04 | 87 | 1009.8 |
| 20260509130007 | 44 | 350 | 0.0 | 0.0 | 0.00 | 0.04 | 0.04 | 89 | 1009.8 |
| 20260509124502 | 45 | 317 | 0.0 | 0.0 | 0.00 | 0.05 | 0.04 | 89 | 1009.6 |
| 20260509123059 | 45 | 316 | 0.0 | 0.0 | 0.00 | 0.05 | 0.04 | 88 | 1009.3 |
| 20260509121609 | 45 | 316 | 0.0 | 0.0 | 0.00 | 0.05 | 0.04 | 88 | 1009.0 |
| 20260509120054 | 45 | 316 | 0.0 | 0.0 | 0.00 | 0.05 | 0.04 | 88 | 1009.0 |
| 20260509114551 | 46 | 316 | 0.0 | 0.0 | 0.01 | 0.05 | 0.04 | 88 | 1008.7 |
| 20260509113055 | 46 | 218 | 0.0 | 1.0 | 0.01 | 0.05 | 0.04 | 89 | 1008.5 |
| 20260509111556 | 46 | 228 | 0.0 | 0.0 | 0.01 | 0.05 | 0.04 | 89 | 1008.6 |
| 20260509110046 | 46 | 227 | 0.0 | 0.0 | 0.01 | 0.05 | 0.04 | 88 | 1008.3 |
| 20260509104547 | 46 | 178 | 0.0 | 0.0 | 0.00 | 0.04 | 0.03 | 88 | 1008.2 |
| 20260509103045 | 47 | 64 | 0.0 | 0.0 | 0.00 | 0.04 | 0.03 | 87 | 1008.1 |
| 20260509101545 | 47 | 64 | 0.0 | 0.0 | 0.00 | 0.04 | 0.03 | 85 | 1008.1 |
| 20260509100045 | 47 | 64 | 0.0 | 0.0 | 0.03 | 0.04 | 0.03 | 84 | 1008.2 |
| 20260509094541 | 47 | 43 | 0.0 | 0.0 | 0.03 | 0.04 | 0.03 | 84 | 1008.3 |
| 20260509093037 | 48 | 19 | 0.0 | 0.0 | 0.03 | 0.04 | 0.03 | 82 | 1008.3 |
| 20260509091535 | 49 | 5 | 0.0 | 0.0 | 0.03 | 0.04 | 0.03 | 80 | 1008.3 |
| 20260509090032 | 50 | 240 | 0.0 | 0.0 | 0.00 | 0.01 | 0.00 | 78 | 1008.4 |
| 20260509084535 | 50 | 36 | 0.0 | 0.0 | 0.00 | 0.01 | 0.00 | 76 | 1007.8 |
| 20260509083035 | 50 | 30 | 0.0 | 2.0 | 0.00 | 0.01 | 0.00 | 76 | 1007.2 |